Flag for U.S.A. Weather past 2 weeks in Anderson, South Carolina, U.S.A.

Now
69 °F

Cloudy.


Feels Like: 69 °F
Forecast: 64 / 69 °F
Wind: 10 mph from South

Location: Anderson County Airport

Current Time: Apr 19, 2015 at 1:51:23 PM

Latest Report: Apr 19, 2015 at 12:56 PM


Visibility: 10 mi

Pressure: 29.84 "Hg

Humidity: 93%

Dew point: 67 °F

Location of AndersonLocation

Historic Weather in Anderson — Graph

°F

Anderson temperature yesterday

Maximum temperature yesterday: 76 °F (at 2:56 PM)
Minimum temperature yesterday: 61 °F (at 6:59 AM)
Average temperature yesterday: 67 °F

Past Weeks' High & Low Weather Summary

 TemperatureHumidityPressure
High88 °F (Apr 9, 2:56 PM)100% (Apr 8, 7:56 AM)30.37 "Hg (Apr 8, 7:56 AM)
Low42 °F (Apr 5, 4:56 AM)14% (Apr 4, 5:56 PM)29.84 "Hg (Apr 19, 12:56 PM)
Average65 °F73%30.12 "Hg
* Reported Apr 4 12:56 PM — Apr 19 12:56 PM, Anderson, Weather by CustomWeather, © 2015

Note: Actual official high and low records may vary slightly from our data, if they occured in-between our weather recording intervals... More about our weather records

Advertising

Anderson weather history for previous 24 hours

 ConditionsComfort  
Time TempWeatherWind HumidityBarometerVisibility
12:56 PM
Sun, Apr 19
69 °FCloudy.10 mph93%29.84 "Hg10 mi
11:56 AM69 °FLow clouds.9 mph93%29.85 "Hg10 mi
10:56 AM68 °FLow clouds.7 mph93%29.84 "Hg10 mi
9:56 AM67 °FMostly cloudy.8 mph97%29.85 "Hg10 mi
9:04 AM66 °FLight rain. Mostly cloudy.6 mph96%29.89 "Hg7 mi
8:56 AM66 °FRain. Fog.5 mph96%29.88 "Hg6 mi
7:59 AM65 °FHeavy rain. Fog.6 mph97%29.90 "Hg1 mi
6:56 AM65 °FLight rain. Fog.7 mph97%29.88 "Hg6 mi
5:56 AM65 °FLight rain. Fog.5 mph97%29.88 "Hg6 mi
4:56 AM65 °FFog.5 mph97%29.89 "Hg6 mi
3:56 AM65 °FMostly cloudy.3 mph97%29.90 "Hg9 mi
2:56 AM65 °FLow clouds.No wind97%29.91 "Hg10 mi
1:56 AM65 °FMostly cloudy.5 mph97%29.93 "Hg10 mi
12:56 AM65 °FMostly cloudy.3 mph94%29.95 "Hg10 mi
11:56 PM
Sat, Apr 18
64 °FPassing clouds.5 mph94%29.95 "Hg10 mi
10:56 PM65 °FClear.5 mph91%29.95 "Hg10 mi
9:56 PM66 °FMostly cloudy.3 mph90%29.96 "Hg10 mi
8:56 PM67 °FPartly sunny.No wind90%29.95 "Hg10 mi
7:56 PM69 °FPartly sunny.No wind84%29.91 "Hg10 mi
6:56 PM71 °FMostly cloudy.7 mph76%29.92 "Hg10 mi
5:56 PM72 °FMostly cloudy.6 mph78%29.93 "Hg10 mi
4:56 PM73 °FOvercast.6 mph71%29.92 "Hg10 mi
3:56 PM71 °FLight rain. Mostly cloudy.6 mph81%29.93 "Hg10 mi
2:56 PM76 °FBroken clouds.12 mph64%29.94 "Hg10 mi
1:56 PM73 °FMostly cloudy.6 mph69%29.97 "Hg10 mi
Weather by CustomWeather, © 2015

See weather overviewHow to use our weather pages